Content
SEND FEEDBACK

Daily
Averages
Monthly
Summary
United States of America

GAYLORD, MICHIGAN


Home > North America > United States > Michigan
Elevation: 394 meters     Latitude: 45 01N     Longitude: 084 40W

WEATHER
 
SELECT A DAY
Number of Records: 209,058;   Date Range: 3/26/98 - 7/29/14
 
SHARE

PRINT THIS DATA

[ ← Previous Day ]
WEATHER ALMANAC - 13 FEBRUARY, 2013
[ Next Day → ]
[ °F ]   °C
Weather ElementAverageHighLow
Temperature-2.1 °C1.1 °C (1:53 pm)-5.6 °C (1:53 am)
Dewpoint-4.6 °C-2.8 °C (9:53 pm)-7.2 °C (1:53 am)
Humidity83 %89 % (1:53 am)70 % (3:53 pm)
Barometer1006.1 hPa1009.8 hPa (1:53 am)1004.1 hPa (12:03 pm)
Wind Speed14.8 km/h29.6 km/h (10:53 am)
Wind Gust44.4 km/h (10:53 am)
Weather ElementAverage
Visibility13.4 km
Wind DirectionSW (219.6 °)

Weather ElementTotal
Precipitation---
Heating Degree Days20.6 (Base 18.3)
Averaged from 28 records on 13 February, 2013
WEATHER CONDITIONS BREAKOUT
WIND DIRECTION BREAKOUT
WEATHER BY HOUR - 13 FEBRUARY, 2013
[ °F ]   °C
Local TimeTemperatureDewpointHumidityBarometerVisibilityWind DirectionWind SpeedGust SpeedPrecipitationEventsConditions
1:53 AM-5.6 °C-7.2 °C89 %1009.8 hPa16.1 kmSW (220°)14.8 km/hOvercast
2:53 AM-5 °C-6.7 °C88 %1009.5 hPa16.1 kmSSW (210°)13 km/hOvercast
3:53 AM-5 °C-6.7 °C88 %1008.8 hPa16.1 kmSSW (210°)14.8 km/hOvercast
4:53 AM-5 °C-6.7 °C88 %1008.5 hPa16.1 kmSSW (210°)14.8 km/hOvercast
5:53 AM-4.4 °C-6.1 °C88 %1008.1 hPa16.1 kmSSW (210°)13 km/hOvercast
6:53 AM-3.9 °C-6.1 °C85 %1007.1 hPa14.5 kmSW (220°)16.7 km/hOvercast
7:53 AM-3.9 °C-5.6 °C88 %1006.8 hPa11.3 kmSW (220°)14.8 km/hOvercast
8:24 AM-4 °C-6 °C86 %1004.7 hPa9.7 kmSSW (210°)11.1 km/hScattered Clouds
8:53 AM-3.3 °C-5 °C88 %1006.8 hPa9.7 kmSW (230°)13 km/hOvercast
9:03 AM-3 °C-5 °C86 %1004.7 hPa9.7 kmWSW (240°)16.7 km/hOvercast
9:27 AM-3 °C-5 °C86 %1004.4 hPa9.7 kmSW (230°)18.5 km/hScattered Clouds
9:41 AM-3 °C-5 °C86 %1004.4 hPa9.7 kmSW (230°)14.8 km/hMostly Cloudy
9:53 AM-2.2 °C-4.4 °C85 %1006.4 hPa9.7 kmWSW (240°)18.5 km/h31.5 km/hOvercast
10:53 AM-1.7 °C-3.9 °C85 %1006.1 hPa8 kmWSW (250°)29.6 km/h44.4 km/hOvercast
11:53 AM-0.6 °C-3.9 °C79 %1005.8 hPa11.3 kmWSW (240°)20.4 km/hMostly Cloudy
12:03 PM-1 °C-4 °C80 %1004.1 hPa12.9 kmWSW (240°)20.4 km/h35.2 km/hMostly Cloudy
12:53 PM0.6 °C-3.9 °C72 %1005.1 hPa16.1 kmWest (260°)18.5 km/hClear
1:53 PM1.1 °C-3.3 °C73 %1005.1 hPa16.1 kmWSW (250°)14.8 km/hOvercast
2:53 PM1.1 °C-3.3 °C73 %1005.1 hPa16.1 kmSW (230°)18.5 km/hOvercast
3:53 PM1.1 °C-3.9 °C70 %1005.1 hPa16.1 kmWSW (240°)18.5 km/hOvercast
4:53 PM0.6 °C-3.3 °C75 %1005.1 hPa16.1 kmWSW (240°)16.7 km/hOvercast
5:53 PM0 °C-3.9 °C75 %1005.4 hPa16.1 kmWSW (240°)13 km/hOvercast
6:53 PM-1.1 °C-3.9 °C82 %1005.4 hPa16.1 kmSW (230°)11.1 km/hOvercast
7:53 PM-1.7 °C-3.3 °C89 %1005.8 hPa14.5 kmCalmOvercast
8:53 PM-1.7 °C-3.9 °C85 %1005.8 hPa14.5 kmSSW (210°)9.3 km/hOvercast
9:53 PM-1.1 °C-2.8 °C88 %1005.4 hPa12.9 kmSSW (200°)7.4 km/hOvercast
10:53 PM-0.6 °C-3.3 °C82 %1005.4 hPa12.9 kmSW (220°)13 km/hOvercast
11:53 PM-1.1 °C-3.3 °C85 %1005.1 hPa11.3 kmSW (220°)7.4 km/hOvercast
Hourly data recorded from KGLR, located 0 kilometers away from Gaylord, Michigan







STORIES FROM OUR PARTNERS